Weather History for Las Cruces, NM

Change the Weather History Date:

Tuesday, November 6, 2012

  Actual Average Record
Temperature  
Mean Temperature 58 °F -  
Max Temperature 77 °F 64 °F 77 °F (2005)
Min Temperature 39 °F 42 °F 32 °F (2002)
Degree Days  
Heating Degree Days 7    
Growing Degree Days 8 (Base 50)    
Moisture  
Dew Point 19 °F    
Average Humidity 23    
Maximum Humidity 36    
Minimum Humidity 12    
Precipitation  
Precipitation 0.00 in - - ()
Sea Level Pressure  
Sea Level Pressure 30.22 in    
Wind  
Wind Speed 3 mph (East)    
Max Wind Speed 8 mph    
Max Gust Speed -    
Visibility 10 miles    
Events      
Averages and records for this station are not official NWS values.
T = Trace of Precipitation, MM = Missing Value Source: NWS Daily Summary

Daily Weather History Graph

Daily Weather History Graph

Search for Another Location

Airport:

Trip Planner

Search our weather history database for the weather conditions in past years. The results will help you decide how hot, cold, wet, or windy it might be!

Date:

Astronomy

Nov. 06, 2012 Rise Set
Actual Time 6:29 AM MST 5:12 PM MST
Civil Twilight 6:03 AM MST 5:38 PM MST
Nautical Twilight 5:34 AM MST 6:07 PM MST
Astronomical Twilight 5:05 AM MST 6:36 PM MST
Moon 11:50 PM MST (11/6) 12:26 PM MST (11/6)
Length of Visible Light 11h 34m
Length of Day
10h 43m
Waning Gibbous, 52% of the Moon is Illuminated
Nov 6
Waning Gibbous
Nov 6
Last Quarter
Nov 13
New
Nov 20
First Quarter
Nov 28
Full

Hourly Weather History & Observations

Time (MST) Temp. Windchill Dew Point Humidity Pressure Visibility Wind Dir Wind Speed Gust Speed Precip Events Conditions
12:15 AM 50.5 °F - 18.9 °F 29% 30.22 in 10.0 mi Calm Calm - N/A   Clear
12:35 AM 46.6 °F - 17.2 °F 31% 30.21 in 10.0 mi NW 3.5 mph - N/A   Clear
12:55 AM 49.8 °F - 18.5 °F 29% 30.21 in 10.0 mi NW 4.6 mph - N/A   Clear
1:35 AM 49.8 °F - 18.3 °F 29% 30.22 in 10.0 mi WNW 5.8 mph - N/A   Clear
2:15 AM 48.6 °F - 18.3 °F 30% 30.22 in 10.0 mi Calm Calm - N/A   Clear
2:35 AM 49.1 °F - 18.5 °F 30% 30.22 in 10.0 mi North 5.8 mph - N/A   Clear
2:55 AM 49.8 °F - 18.3 °F 29% 30.21 in 10.0 mi North 4.6 mph - N/A   Clear
3:15 AM 49.3 °F - 18.5 °F 30% 30.22 in 10.0 mi NE 3.5 mph - N/A   Clear
3:35 AM 45.1 °F 42.8 °F 17.2 °F 33% 30.22 in 10.0 mi NW 4.6 mph - N/A   Clear
3:55 AM 43.5 °F - 16.3 °F 34% 30.22 in 10.0 mi Calm Calm - N/A   Clear
4:15 AM 42.8 °F 40.1 °F 16.2 °F 34% 30.23 in 10.0 mi NW 4.6 mph - N/A   Clear
4:35 AM 43.0 °F 40.3 °F 16.7 °F 35% 30.23 in 10.0 mi NW 4.6 mph - N/A   Clear
4:55 AM 42.8 °F 41.1 °F 16.2 °F 34% 30.23 in 10.0 mi NW 3.5 mph - N/A   Clear
5:15 AM 41.7 °F 38.0 °F 15.4 °F 35% 30.23 in 10.0 mi WNW 5.8 mph - N/A   Clear
5:35 AM 42.1 °F 38.4 °F 14.9 °F 33% 30.23 in 10.0 mi NNW 5.8 mph - N/A   Clear
5:55 AM 41.9 °F 37.5 °F 15.1 °F 34% 30.23 in 10.0 mi NW 6.9 mph - N/A   Clear
6:15 AM 40.6 °F 38.6 °F 14.4 °F 34% 30.24 in 10.0 mi NW 3.5 mph - N/A   Clear
6:35 AM 39.4 °F 36.1 °F 14.0 °F 36% 30.24 in 10.0 mi NW 4.6 mph - N/A   Clear
6:55 AM 42.4 °F 37.5 °F 15.6 °F 34% 30.25 in 10.0 mi NW 8.1 mph - N/A   Clear
7:15 AM 46.2 °F 42.7 °F 16.7 °F 31% 30.25 in 10.0 mi NW 6.9 mph - N/A   Clear
7:35 AM 49.8 °F - 17.4 °F 28% 30.27 in 10.0 mi NNW 4.6 mph - N/A   Clear
7:55 AM 55.9 °F - 19.0 °F 24% 30.27 in 10.0 mi Calm Calm - N/A   Clear
8:15 AM 59.2 °F - 19.4 °F 21% 30.27 in 10.0 mi NW 3.5 mph - N/A   Clear
8:35 AM 60.6 °F - 19.2 °F 20% 30.28 in 10.0 mi Calm Calm - N/A   Clear
8:55 AM 62.2 °F - 19.9 °F 20% 30.28 in 10.0 mi ESE 4.6 mph - N/A   Clear
9:15 AM 61.0 °F - 19.9 °F 21% 30.29 in 10.0 mi ESE 4.6 mph - N/A   Clear
9:35 AM 62.2 °F - 19.4 °F 19% 30.29 in 10.0 mi ESE 3.5 mph - N/A   Clear
9:55 AM 63.7 °F - 19.8 °F 19% 30.29 in 10.0 mi Calm Calm - N/A   Clear
10:15 AM 64.6 °F - 20.1 °F 18% 30.29 in 10.0 mi ENE 3.5 mph - N/A   Clear
10:35 AM 65.8 °F - 20.1 °F 17% 30.28 in 10.0 mi Calm Calm - N/A   Clear
10:55 AM 68.0 °F - 20.3 °F 16% 30.28 in 10.0 mi East 3.5 mph - N/A   Clear
11:15 AM 68.5 °F - 20.3 °F 16% 30.27 in 10.0 mi Calm Calm - N/A   Clear
11:35 AM 70.5 °F - 20.5 °F 15% 30.26 in 10.0 mi Calm Calm - N/A   Clear
12:15 PM 72.0 °F - 20.8 °F 15% 30.24 in 10.0 mi Calm Calm - N/A   Clear
12:35 PM 73.8 °F - 21.2 °F 14% 30.23 in 10.0 mi ENE 3.5 mph - N/A   Clear
12:55 PM 74.5 °F - 21.0 °F 13% 30.23 in 10.0 mi ENE 3.5 mph - N/A   Clear
1:15 PM 74.8 °F - 21.0 °F 13% 30.22 in 10.0 mi SE 5.8 mph - N/A   Clear
1:35 PM 76.1 °F - 21.2 °F 13% 30.20 in 10.0 mi South 3.5 mph - N/A   Clear
1:55 PM 75.9 °F - 21.2 °F 13% 30.20 in 10.0 mi ESE 3.5 mph - N/A   Clear
2:15 PM 75.9 °F - 21.0 °F 13% 30.19 in 10.0 mi ESE 4.6 mph - N/A   Clear
2:35 PM 77.2 °F - 21.0 °F 12% 30.19 in 10.0 mi ESE 3.5 mph - N/A   Clear
3:15 PM 77.7 °F - 21.2 °F 12% 30.19 in 10.0 mi East 3.5 mph - N/A   Clear
3:35 PM 77.0 °F - 21.0 °F 12% 30.18 in 10.0 mi South 3.5 mph - N/A   Clear
3:55 PM 77.0 °F - 21.2 °F 12% 30.18 in 10.0 mi Calm Calm - N/A   Clear
4:35 PM 75.7 °F - 21.0 °F 13% 30.18 in 10.0 mi Calm Calm - N/A   Clear
4:55 PM 74.1 °F - 20.8 °F 14% 30.18 in 10.0 mi SE 3.5 mph - N/A   Clear
5:15 PM 70.0 °F - 21.2 °F 16% 30.18 in 10.0 mi ESE 4.6 mph - N/A   Clear
5:35 PM 67.5 °F - 22.6 °F 18% 30.18 in 10.0 mi ESE 4.6 mph - N/A   Clear
5:55 PM 66.4 °F - 23.7 °F 20% 30.19 in 10.0 mi ESE 4.6 mph - N/A   Clear
6:15 PM 65.5 °F - 24.8 °F 21% 30.19 in 10.0 mi ESE 3.5 mph - N/A   Clear
6:35 PM 66.0 °F - 23.9 °F 20% 30.20 in 10.0 mi SE 4.6 mph - N/A   Clear
6:55 PM 65.7 °F - 23.9 °F 21% 30.20 in 10.0 mi SE 5.8 mph - N/A   Clear
7:15 PM 64.6 °F - 23.5 °F 21% 30.20 in 10.0 mi SSE 4.6 mph - N/A   Clear
7:35 PM 62.8 °F - 22.8 °F 22% 30.20 in 10.0 mi SSE 5.8 mph - N/A   Clear
7:55 PM 63.0 °F - 22.5 °F 21% 30.20 in 10.0 mi SSE 5.8 mph - N/A   Clear
8:15 PM 62.8 °F - 21.9 °F 21% 30.20 in 10.0 mi South 5.8 mph - N/A   Clear
8:35 PM 60.3 °F - 21.6 °F 23% 30.21 in 10.0 mi South 5.8 mph - N/A   Clear
8:55 PM 56.5 °F - 20.1 °F 24% 30.21 in 10.0 mi South 5.8 mph - N/A   Clear
9:15 PM 58.1 °F - 20.8 °F 24% 30.21 in 10.0 mi SSW 4.6 mph - N/A   Clear
9:35 PM 53.2 °F - 18.0 °F 25% 30.21 in 10.0 mi Calm Calm - N/A   Clear
9:55 PM 49.8 °F - 18.3 °F 29% 30.21 in 10.0 mi Calm Calm - N/A   Clear
10:15 PM 51.4 °F - 19.6 °F 29% 30.21 in 10.0 mi Calm Calm - N/A   Clear
10:35 PM 50.4 °F - 18.9 °F 29% 30.21 in 10.0 mi Calm Calm - N/A   Clear
10:55 PM 48.9 °F - 18.3 °F 30% 30.21 in 10.0 mi Calm Calm - N/A   Clear
11:15 PM 53.1 °F - 17.1 °F 24% 30.21 in 10.0 mi Calm Calm - N/A   Clear
11:35 PM 49.6 °F - 16.9 °F 27% 30.21 in 10.0 mi Calm Calm - N/A   Clear
11:55 PM 48.2 °F - 16.9 °F 29% 30.21 in 10.0 mi Calm Calm - N/A   Clear